FW5399 Weather Reports


time (UTC)temp
C
wind
direction
speed
KPH
gust
KPH
rain 1hr
cm
rain 24hr
cm
rain mn
cm
humidity
%
barometer
mb
20260505025012 20 201 0.0 1.6 0.00 0.00 0.00 66 1031.8
20260505024514 20 218 1.6 3.2 0.00 0.00 0.00 67 1031.8
20260505024011 20 218 0.0 3.2 0.00 0.00 0.00 65 1031.8
20260505023512 20 273 0.0 0.0 0.00 0.00 0.00 68 1031.8
20260505023013 20 271 0.0 0.0 0.00 0.00 0.00 67 1031.8
20260505022511 20 242 0.0 3.2 0.00 0.00 0.00 69 1031.8
20260505022012 20 242 0.0 3.2 0.00 0.00 0.00 68 1031.9
20260505021902 20 253 0.0 3.2 0.00 0.00 0.00 69 1031.9
20260505021011 20 234 0.0 4.8 0.00 0.00 0.00 69 1032.0
20260505020512 20 235 0.0 4.8 0.00 0.00 0.00 68 1032.0
20260505020012 20 257 0.0 3.2 0.00 0.00 0.00 68 1031.9
20260505015902 20 174 0.0 3.2 0.00 0.00 0.00 68 1032.1
20260505015010 20 175 0.0 3.2 0.00 0.00 0.00 67 1032.2
20260505014902 20 201 0.0 4.8 0.00 0.00 0.00 67 1032.2
20260505014013 20 135 0.0 4.8 0.00 0.00 0.00 67 1032.2
20260505013512 20 241 0.0 3.2 0.00 0.00 0.00 67 1032.3
20260505013009 19 241 0.0 3.2 0.00 0.00 0.00 67 1032.3
20260505012508 19 150 0.0 3.2 0.00 0.00 0.00 67 1032.5
20260505012009 20 210 0.0 1.6 0.00 0.00 0.00 65 1032.5
20260505011506 20 151 0.0 3.2 0.00 0.00 0.00 65 1032.5
20260505011010 20 153 0.0 4.8 0.00 0.00 0.00 66 1032.6
20260505010509 20 59 0.0 4.8 0.00 0.00 0.00 65 1032.8
20260505010009 21 109 0.0 3.2 0.00 0.00 0.00 65 1032.8
20260505005504 21 317 0.0 1.6 0.00 0.00 0.00 65 1032.8
20260505004959 21 317 0.0 1.6 0.00 0.00 0.00 66 1032.9
20260505004452 21 316 0.0 1.6 0.00 0.00 0.00 66 1033.0
20260505003947 21 318 0.0 1.6 0.00 0.00 0.00 66 1033.1
20260505003447 21 338 0.0 1.6 0.00 0.00 0.00 68 1033.1
20260505002945 20 338 0.0 1.6 0.00 0.00 0.00 67 1033.2
20260505002445 21 292 0.0 1.6 0.00 0.00 0.00 64 1033.3
20260505001943 21 237 0.0 3.2 0.00 0.00 0.00 68 1033.4
20260505001442 20 5 0.0 3.2 0.00 0.00 0.00 69 1033.5
20260505000944 20 338 0.0 1.6 0.00 0.00 0.00 69 1033.5
20260505000834 20 0 0.0 3.2 0.00 0.00 0.00 68 1033.6
20260504235947 20 288 0.0 3.2 0.00 0.00 0.00 68 1033.6
20260504235445 19 277 0.0 0.0 0.00 0.00 0.00 68 1033.7
20260504234938 20 261 0.0 1.6 0.00 0.00 0.00 69 1033.9
20260504234437 19 266 0.0 1.6 0.00 0.00 0.00 70 1033.8
20260504233937 18 295 0.0 1.6 0.00 0.00 0.00 70 1033.9
20260504233433 18 290 0.0 1.6 0.00 0.00 0.00 70 1034.1
20260504232932 18 338 0.0 3.2 0.00 0.00 0.00 71 1034.1
20260504232430 18 325 0.0 4.8 0.00 0.00 0.00 70 1034.1
20260504231928 18 338 0.0 4.8 0.00 0.00 0.00 71 1034.1
20260504231428 18 306 0.0 3.2 0.00 0.00 0.00 71 1034.0
20260504230942 18 284 0.0 3.2 0.00 0.00 0.00 72 1034.1
20260504230816 18 336 0.0 3.2 0.00 0.00 0.00 71 1034.1
20260504225931 18 295 0.0 1.6 0.00 0.00 0.00 71 1034.2
20260504225427 18 341 0.0 3.2 0.00 0.00 0.00 70 1034.2
20260504224919 18 314 0.0 4.8 0.00 0.00 0.00 70 1034.2
20260504224414 18 327 0.0 4.8 0.00 0.00 0.00 72 1034.2
20260504223907 18 305 0.0 3.2 0.00 0.00 0.00 72 1034.3
20260504223401 18 284 0.0 6.4 0.00 0.00 0.00 72 1034.4
20260504222857 18 320 0.0 6.4 0.00 0.00 0.00 73 1034.5
20260504222350 17 331 0.0 4.8 0.00 0.00 0.00 73 1034.4
20260504221843 17 298 0.0 4.8 0.00 0.00 0.00 75 1034.3
20260504221337 17 283 0.0 4.8 0.00 0.00 0.00 76 1034.3
20260504220827 17 304 0.0 4.8 0.00 0.00 0.00 77 1034.3
20260504220720 16 288 0.0 4.8 0.00 0.00 0.00 75 1034.3
20260504215814 17 329 0.0 3.2 0.00 0.00 0.00 75 1034.2
20260504215308 17 312 0.0 1.6 0.00 0.00 0.00 77 1034.2
20260504214806 16 305 0.0 3.2 0.00 0.00 0.00 77 1034.2
20260504214253 16 313 0.0 3.2 0.00 0.00 0.00 79 1034.3
20260504214201 16 307 0.0 3.2 0.00 0.00 0.00 78 1034.2
20260504213246 16 308 0.0 3.2 0.00 0.00 0.00 79 1034.3
20260504212743 15 298 0.0 3.2 0.00 0.00 0.00 81 1034.3
20260504212245 15 317 0.0 3.2 0.00 0.00 0.00 83 1034.4
20260504211747 14 287 0.0 3.2 0.00 0.00 0.00 83 1034.5
20260504211243 14 291 0.0 0.0 0.00 0.00 0.00 86 1034.4
20260504210741 13 292 0.0 0.0 0.00 0.00 0.00 87 1034.3
20260504210239 13 260 0.0 3.2 0.00 0.00 0.00 88 1034.4
20260504205735 13 264 0.0 3.2 0.00 0.00 0.00 88 1034.3
20260504205233 13 303 0.0 0.0 0.00 0.00 0.00 88 1034.4
20260504204733 13 303 0.0 0.0 0.00 0.00 0.00 89 1034.4
20260504204234 13 291 0.0 0.0 0.00 0.00 0.00 89 1034.5
20260504203728 12 291 0.0 0.0 0.00 0.00 0.00 89 1034.4
20260504203224 12 291 0.0 0.0 0.00 0.00 0.00 89 1034.5
20260504202722 12 291 0.0 0.0 0.00 0.00 0.00 89 1034.5
20260504202223 12 291 0.0 0.0 0.00 0.00 0.00 89 1034.4
20260504201724 12 291 0.0 0.0 0.00 0.00 0.00 90 1034.5
20260504201224 12 291 0.0 0.0 0.00 0.00 0.00 90 1034.4
20260504200718 12 291 0.0 3.2 0.00 0.00 0.00 90 1034.4
20260504200212 12 291 0.0 3.2 0.00 0.00 0.00 90 1034.2
20260504195713 12 289 0.0 6.4 0.00 0.00 0.00 90 1034.2
20260504195212 11 311 0.0 6.4 0.00 0.00 0.00 90 1034.2
20260504194711 11 295 0.0 1.6 0.00 0.00 0.00 91 1034.1
20260504194212 11 317 0.0 0.0 0.00 0.00 0.00 91 1034.0
20260504193711 11 317 0.0 0.0 0.00 0.00 0.00 91 1034.0
20260504193215 11 318 0.0 0.0 0.00 0.00 0.00 91 1034.0
20260504192712 11 317 0.0 0.0 0.00 0.00 0.00 91 1034.1
20260504192207 11 317 0.0 1.6 0.00 0.00 0.00 91 1034.1
20260504191706 11 307 0.0 1.6 0.00 0.00 0.00 91 1034.0
20260504191600 11 289 0.0 0.0 0.00 0.00 0.00 92 1033.8
20260504190706 11 289 0.0 0.0 0.00 0.00 0.00 92 1033.8
20260504190207 11 289 0.0 0.0 0.00 0.00 0.00 92 1033.8
20260504185707 11 289 0.0 3.2 0.00 0.00 0.00 92 1033.8
20260504185555 11 289 0.0 4.8 0.00 0.00 0.00 92 1033.8
20260504184709 11 320 0.0 4.8 0.00 0.00 0.00 92 1033.7
20260504184207 11 279 0.0 6.4 0.00 0.00 0.00 92 1033.8
20260504183703 11 241 0.0 6.4 0.00 0.00 0.00 92 1033.8
20260504183209 11 287 0.0 6.4 0.00 0.00 0.00 93 1033.8
20260504182659 11 263 0.0 4.8 0.00 0.00 0.00 93 1033.9
20260504182153 11 262 1.6 4.8 0.00 0.00 0.00 93 1033.8
20260504181647 11 286 0.0 4.8 0.00 0.00 0.00 94 1033.9
20260504181141 11 246 0.0 4.8 0.00 0.00 0.00 94 1033.9
20260504180634 11 290 0.0 3.2 0.00 0.00 0.00 94 1033.9
20260504180130 10 269 0.0 3.2 0.00 0.00 0.00 95 1033.9
20260504180020 10 286 0.0 3.2 0.00 0.00 0.00 95 1034.0
20260504175117 10 261 0.0 1.6 0.00 0.00 0.00 95 1034.0
20260504174611 10 298 0.0 1.6 0.00 0.00 0.00 95 1034.0
20260504174104 10 299 0.0 1.6 0.00 0.00 0.00 95 1034.0
20260504173559 10 303 0.0 1.6 0.00 0.00 0.00 95 1034.0
20260504173054 10 304 0.0 1.6 0.00 0.00 0.00 95 1034.0
20260504172546 10 304 0.0 1.6 0.00 0.00 0.00 96 1034.1
20260504172041 10 305 0.0 1.6 0.00 0.00 0.00 96 1034.1
20260504171535 10 304 0.0 0.0 0.00 0.00 0.00 96 1034.1
20260504171029 10 304 0.0 0.0 0.00 0.00 0.00 96 1034.1
20260504170529 10 304 0.0 1.6 0.00 0.00 0.00 96 1034.2
20260504160411 10 324 0.0 1.6 0.00 0.00 0.00 93 1034.3
20260504150820 11 340 0.0 1.6 0.00 0.00 0.00 92 1034.7
20260504150731 11 306 0.0 1.6 0.00 0.00 0.00 92 1034.8
20260504140814 10 324 0.0 1.6 0.00 0.03 0.00 93 1035.3
20260504140309 10 324 0.0 1.6 0.00 0.03 0.00 94 1035.3
20260504130310 10 324 0.0 0.0 0.00 0.03 0.00 98 1035.9
20260504110234 6 101 0.0 0.0 0.00 0.03 0.03 99 1035.7
20260504100230 6 101 0.0 0.0 0.00 0.03 0.03 97 1035.8
20260504100206 7 101 0.0 0.0 0.00 0.03 0.03 97 1035.6
20260504081124 10 101 0.0 0.0 0.00 0.03 0.03 97 1035.5
20260504080617 11 101 0.0 0.0 0.00 0.03 0.03 97 1035.4
20260504080501 11 101 0.0 0.0 0.00 0.03 0.03 97 1035.3
20260504050256 12 101 0.0 0.0 0.00 0.03 0.03 88 1033.8
20260504050211 13 101 0.0 0.0 0.00 0.03 0.03 87 1033.7
20260504045701 13 101 0.0 0.0 0.00 0.03 0.03 86 1033.7
20260504044752 13 101 0.0 0.0 0.00 0.03 0.03 85 1033.6
20260504044422 14 101 0.0 0.0 0.00 0.03 0.03 83 1033.6
20260504043245 15 101 0.0 0.0 0.00 0.03 0.03 80 1033.7
20260504043146 15 101 0.0 0.0 0.00 0.03 0.03 79 1033.6
20260504042245 15 101 0.0 1.6 0.00 0.03 0.03 78 1033.6
20260504041743 16 101 0.0 1.6 0.00 0.03 0.03 76 1033.5
20260504041639 16 144 0.0 3.2 0.00 0.03 0.03 75 1033.5
20260504041224 16 134 0.0 3.2 0.00 0.03 0.03 75 1033.5
20260504040642 16 133 0.0 3.2 0.00 0.03 0.03 74 1033.6
20260504035742 16 5 0.0 3.2 0.00 0.03 0.03 74 1033.6
20260504035241 16 175 0.0 3.2 0.00 0.03 0.03 74 1033.5
20260504034741 17 123 0.0 3.2 0.00 0.03 0.03 74 1033.6
20260504034420 17 149 0.0 4.8 0.00 0.03 0.03 73 1033.5
20260504034325 17 68 0.0 4.8 0.00 0.03 0.03 73 1033.5
20260504033141 18 124 1.6 6.4 0.00 0.03 0.03 72 1033.4
20260504032711 18 125 1.6 9.7 0.00 0.03 0.03 71 1033.4
20260504031740 18 120 1.6 9.7 0.00 0.03 0.03 70 1033.4
20260504031242 18 195 0.0 6.4 0.00 0.03 0.03 69 1033.5
20260504030740 18 35 0.0 4.8 0.00 0.03 0.03 70 1033.5
20260504030300 18 185 0.0 4.8 0.00 0.03 0.03 70 1033.4
20260504025744 18 45 1.6 8.0 0.00 0.03 0.03 70 1033.5
20260504025705 18 125 1.6 8.0 0.00 0.03 0.03 70 1033.5
20260504025200 18 160 1.6 6.4 0.00 0.03 0.03 69 1033.5